CW7283 Weather Reports


time (UTC)temp
C
wind
direction
speed
KPH
gust
KPH
rain 1hr
cm
rain 24hr
cm
rain mn
cm
humidity
%
barometer
mb
20260902230350 31 263 1.6 4.8 0.00 0.00 0.00 23 1006.4
20260902224900 31 123 0.0 4.8 0.00 0.00 0.00 24 1006.4
20260902223348 31 217 1.6 8.0 0.00 0.00 0.00 23 1006.4
20260902221828 32 172 0.0 3.2 0.00 0.00 0.00 24 1006.5
20260902220330 31 215 0.0 1.6 0.00 0.00 0.00 24 1006.7
20260902214852 30 217 0.0 0.0 0.00 0.00 0.00 26 1006.8
20260902213352 30 176 0.0 3.2 0.00 0.00 0.00 25 1007.0
20260902211846 30 291 0.0 3.2 0.00 0.00 0.00 25 1007.1
20260902210346 30 142 0.0 3.2 0.00 0.00 0.00 25 1007.1
20260902204912 30 152 0.0 3.2 0.00 0.00 0.00 26 1007.6
20260902203348 28 184 0.0 6.4 0.00 0.00 0.00 27 1007.7
20260902201852 30 232 0.0 3.2 0.00 0.00 0.00 25 1007.7
20260902200346 30 204 0.0 9.7 0.00 0.00 0.00 26 1007.8
20260902194853 31 248 1.6 6.4 0.00 0.00 0.00 25 1007.8
20260902193333 30 360 0.0 4.8 0.00 0.00 0.00 26 1008.1
20260902191843 30 136 1.6 9.7 0.00 0.00 0.00 25 1008.2
20260902190340 30 178 0.0 4.8 0.00 0.00 0.00 28 1008.3
20260902184835 29 232 1.6 4.8 0.00 0.00 0.00 27 1008.5
20260902183334 28 33 0.0 3.2 0.00 0.00 0.00 30 1008.7
20260902181841 28 315 0.0 3.2 0.00 0.00 0.00 29 1009.0
20260902180403 28 107 0.0 3.2 0.00 0.00 0.00 31 1009.3
20260902174845 28 173 1.6 6.4 0.00 0.00 0.00 31 1009.6
20260902173351 27 215 0.0 3.2 0.00 0.00 0.00 37 1009.7
20260902171832 26 52 0.0 3.2 0.00 0.00 0.00 42 1010.0
20260902170340 25 5 0.0 3.2 0.00 0.00 0.00 43 1010.1
20260902164852 24 24 0.0 3.2 0.00 0.00 0.00 44 1010.1
20260902163351 23 47 0.0 3.2 0.00 0.00 0.00 50 1010.2
20260902161826 21 18 0.0 3.2 0.00 0.00 0.00 53 1010.3
20260902160405 20 355 0.0 3.2 0.00 0.00 0.00 54 1010.4
20260902154827 19 360 0.0 1.6 0.00 0.00 0.00 55 1010.6
20260902153331 18 10 0.0 3.2 0.00 0.00 0.00 58 1010.7
20260902151833 17 9 0.0 3.2 0.00 0.00 0.00 60 1010.7
20260902150330 15 184 0.0 1.6 0.00 0.00 0.00 65 1010.8
20260902144840 14 178 0.0 3.2 0.00 0.00 0.00 67 1011.2
20260902143400 12 224 0.0 0.0 0.00 0.00 0.00 74 1011.2
20260902141849 11 335 0.0 0.0 0.00 0.00 0.00 75 1011.2
20260902140354 11 321 0.0 0.0 0.00 0.00 0.00 76 1011.4
20260902133403 10 298 0.0 0.0 0.00 0.00 0.00 81 1011.6
20260902131832 9 170 0.0 0.0 0.00 0.00 0.00 82 1011.5
20260902130346 8 170 0.0 0.0 0.00 0.00 0.00 82 1011.4
20260902124841 9 136 0.0 0.0 0.00 0.00 0.00 82 1011.3
20260902123356 9 254 0.0 0.0 0.00 0.00 0.00 80 1011.3
20260902121837 9 269 0.0 0.0 0.00 0.00 0.00 80 1011.3
20260902120325 9 269 0.0 0.0 0.00 0.00 0.00 81 1011.4
20260902114841 9 228 0.0 0.0 0.00 0.00 0.00 81 1011.6
20260902113340 9 215 0.0 0.0 0.00 0.00 0.00 82 1011.3
20260902111826 9 246 0.0 0.0 0.00 0.00 0.00 82 1011.4
20260902110354 9 242 0.0 0.0 0.00 0.00 0.00 81 1011.7
20260902104841 9 242 0.0 0.0 0.00 0.00 0.00 80 1011.7
20260902103353 10 242 0.0 0.0 0.00 0.00 0.00 80 1011.7
20260902101901 10 243 0.0 0.0 0.00 0.00 0.00 78 1011.4
20260902100337 10 242 0.0 0.0 0.00 0.00 0.00 78 1011.8
20260902094829 10 257 0.0 0.0 0.00 0.00 0.00 79 1011.7
20260902093326 10 258 0.0 0.0 0.00 0.00 0.00 79 1011.9
20260902091826 10 270 0.0 0.0 0.00 0.00 0.00 79 1011.8
20260902090333 11 282 0.0 0.0 0.00 0.00 0.00 78 1011.8
20260902084839 11 277 0.0 0.0 0.00 0.00 0.00 77 1011.9
20260902083328 11 156 0.0 0.0 0.00 0.00 0.00 76 1011.9
20260902081826 12 156 0.0 0.0 0.00 0.00 0.00 74 1011.9
20260902080341 12 156 0.0 0.0 0.00 0.00 0.00 74 1011.9
20260902074834 12 152 0.0 0.0 0.00 0.00 0.00 73 1012.0
20260902073411 12 136 0.0 0.0 0.00 0.00 0.00 71 1012.0
20260902071858 12 136 0.0 0.0 0.00 0.00 0.00 70 1011.9
20260902070356 13 136 0.0 0.0 0.00 0.00 0.00 69 1012.1
20260902064829 13 136 0.0 0.0 0.00 0.00 0.00 68 1012.2
20260902063345 13 132 0.0 0.0 0.00 0.00 0.00 67 1012.1
20260902061840 13 132 0.0 0.0 0.00 0.00 0.00 66 1012.0
20260902060408 13 134 0.0 0.0 0.00 0.00 0.00 69 1012.1
20260902054903 14 132 0.0 0.0 0.00 0.00 0.00 68 1012.0
20260902053337 15 147 0.0 0.0 0.00 0.00 0.00 66 1011.8
20260902051859 15 147 0.0 0.0 0.00 0.00 0.00 65 1012.1
20260902050352 15 147 0.0 0.0 0.00 0.00 0.00 65 1012.1
20260902044832 15 147 0.0 0.0 0.00 0.00 0.00 64 1012.1
20260902043353 16 141 0.0 0.0 0.00 0.00 0.00 63 1012.3
20260902041847 16 141 0.0 0.0 0.00 0.00 0.00 62 1012.3
20260902040354 16 140 0.0 0.0 0.00 0.00 0.00 61 1012.2
20260902034830 17 140 0.0 0.0 0.00 0.00 0.00 58 1012.0
20260902033400 17 140 0.0 0.0 0.00 0.00 0.00 56 1012.1
20260902031842 18 140 0.0 0.0 0.00 0.00 0.00 55 1011.8
20260902030352 18 140 0.0 0.0 0.00 0.00 0.00 54 1011.8
20260902024900 19 140 0.0 0.0 0.00 0.00 0.00 53 1011.8
20260902023419 20 157 0.0 3.2 0.00 0.00 0.00 51 1011.6
20260902021853 20 128 0.0 3.2 0.00 0.00 0.00 50 1011.3
20260902020352 20 112 0.0 3.2 0.00 0.00 0.00 49 1011.2
20260902014841 21 146 0.0 3.2 0.00 0.00 0.00 47 1011.2
20260902013343 21 180 0.0 3.2 0.00 0.00 0.00 47 1011.4
20260902011851 21 126 0.0 3.2 0.00 0.00 0.00 47 1011.4
20260902010355 21 126 0.0 1.6 0.00 0.00 0.00 45 1011.4
20260902004851 22 163 0.0 4.8 0.00 0.00 0.00 44 1011.5
20260902003340 22 234 0.0 3.2 0.00 0.00 0.00 44 1011.6
20260902001835 22 211 0.0 3.2 0.00 0.00 0.00 42 1011.7
20260902000341 22 205 0.0 3.2 0.00 0.00 0.00 42 1011.8
20260901234827 22 31 0.0 8.0 0.00 0.00 0.00 42 1011.9
20260901233327 22 115 0.0 6.4 0.00 0.00 0.00 42 1011.9
20260901231849 22 221 1.6 12.9 0.00 0.00 0.00 42 1012.1